Regional Weather Roundup
Issued by NWS

Home | Current Version | Previous Version | Graphics & Text | Print | Product List | Glossary On
Versions: 1 2 3 4 5 6 7 8 9 10 11 12 13 14 15 16 17 18 19 20 21 22 23 24 25 26 27 28 29 30 31 32 33 34 35 36 37 38 39 40 41 42 43 44 45 46 47 48 49 50
000
ASUS43 KOAX 240702
RWRNE

WEATHER ROUNDUP FOR NEBRASKA
NATIONAL WEATHER SERVICE OMAHA NE
200 AM CDT TUE MAY 24 2016

NOTES: SATELLITE DATA IS BEING USED TO AUGMENT CLOUD COVER ABOVE
       12000 FEET.
       "FAIR" INDICATES FEW OR NO CLOUDS BELOW 12,000 FEET WITH NO
       SIGNIFICANT WEATHER AND/OR OBSTRUCTIONS TO VISIBILITY.

  * THESE STATIONS DO NOT REPORT WEATHER SUCH AS RAIN...SNOW OR FOG.

NEZ001>004-019>022-054>056-240800-
NEBRASKA PANHANDLE

CITY           SKY/WX    TMP DP  RH WIND       PRES   REMARKS
SCOTTSBLUFF    CLEAR     42  40  92 CALM      29.91R
ALLIANCE       CLEAR     37  36  96 SW3       29.89S
CHADRON        CLEAR     49  40  71 CALM      29.85F
SIDNEY         CLOUDY    41  38  89 NW8       29.90F
$$

NEZ057>060-069>072-079>082-240800-
SOUTHWEST NEBRASKA

CITY           SKY/WX    TMP DP  RH WIND       PRES   REMARKS
NORTH PLATTE   CLEAR     48  44  86 N3        29.83F
IMPERIAL       CLOUDY    55  46  71 NW8       29.85S
LEXINGTON      CLEAR     52  47  83 NW5       29.82F
MCCOOK         CLEAR     55  45  68 NE6       29.80F
$$

NEZ005>010-023>029-035>040-094-240800-
NORTH CENTRAL NEBRASKA

CITY           SKY/WX    TMP DP  RH WIND       PRES   REMARKS
VALENTINE      CLEAR     52  43  71 SW10      29.82S
AINSWORTH      CLEAR     55  44  67 W7        29.82S
BROKEN BOW     CLEAR     49  45  86 NE3       29.82F
ORD            PTCLDY    57  56  96 CALM      29.80F FOG
$$

NEZ041-046>049-061>064-073>077-083>087-240800-
SOUTH CENTRAL NEBRASKA

CITY           SKY/WX    TMP DP  RH WIND       PRES   REMARKS
GRAND ISLAND   CLEAR     61  59  93 S7        29.82F
HASTINGS       CLOUDY    62  59  90 SE6       29.81F
KEARNEY *      CLEAR     57  55  94 SE5       29.82F
YORK           CLOUDY    57  57 100 E7        29.81F
$$

NEZ011>018-030>034-042>045-240800-
NORTHEAST NEBRASKA

CITY           SKY/WX    TMP DP  RH WIND       PRES   REMARKS
NORFOLK        CLEAR     59  58  96 SE3       29.80R FOG
ALBION         CLEAR     58  55  91 CALM      29.81S
FREMONT        CLOUDY    60  59  95 CALM      29.82F
TEKAMAH        CLOUDY    64  60  87 S10       29.82R
$$

NEZ050>053-065>068-078-088>093-240800-
SOUTHEAST NEBRASKA

CITY           SKY/WX    TMP DP  RH WIND       PRES   REMARKS
LINCOLN        CLOUDY    60  58  92 E5        29.83F
OMAHA EPPLEY   CLOUDY    64  60  87 S13       29.84F
FALLS CITY     CLOUDY    68  61  78 S9        29.85F
PLATTSMOUTH    CLOUDY    62  60  96 S6        29.85R
$$

NEZ044-045-051>053-067-240800-
OMAHA AREA

CITY           SKY/WX    TMP DP  RH WIND       PRES   REMARKS
OMAHA EPPLEY   CLOUDY    64  60  87 S13       29.84F
FREMONT        CLOUDY    60  59  95 CALM      29.82F
OFFUTT AFB     CLOUDY    62  60  94 S1        29.83F
PLATTSMOUTH    CLOUDY    62  60  96 S6        29.85R
$$



USA.gov is the U.S. government's official web portal to all federal, state and local government web resources and services.